GW0483 Weather Reports


Display with metric or nautical units.
time (UTC)temp
F
wind
direction
speed
MPH
gust
MPH
rain 1hr
in
rain 24hr
in
rain mn
in
humidity
%
barometer
mb
20260506224038 73 323 4.0 5.0 0.00 0.00 0.00 73 1009.4
20260506223533 73 26 5.0 8.0 0.00 0.00 0.00 74 1009.5
20260506223030 74 101 2.0 3.0 0.00 0.00 0.00 74 1009.2
20260506222527 74 1 5.0 7.0 0.00 0.00 0.00 74 1009.1
20260506222024 74 9 7.0 11.0 0.00 0.00 0.00 73 1009.1
20260506221521 74 107 3.0 6.0 0.00 0.00 0.00 74 1009.0
20260506221019 77 311 8.0 10.0 0.00 0.00 0.00 70 1008.9
20260506220514 78 145 1.0 2.0 0.00 0.00 0.00 71 1009.0
20260506220010 77 24 5.0 7.0 0.00 0.00 0.00 71 1009.0
20260506215507 76 15 2.0 2.0 0.00 0.00 0.00 72 1008.9
20260506215003 75 37 4.0 6.0 0.00 0.00 0.00 75 1009.1
20260506214500 78 330 4.0 7.0 0.00 0.00 0.00 72 1009.1
20260506213957 79 353 3.0 5.0 0.00 0.00 0.00 71 1009.0
20260506213455 79 43 4.0 7.0 0.00 0.00 0.00 70 1009.2
20260506212952 77 26 6.0 7.0 0.00 0.00 0.00 73 1008.9
20260506212448 78 301 6.0 8.0 0.00 0.00 0.00 72 1008.6
20260506211943 80 311 5.0 8.0 0.00 0.00 0.00 70 1008.9
20260506211439 81 130 3.0 5.0 0.00 0.00 0.00 69 1008.8
20260506210937 82 133 3.0 7.0 0.00 0.00 0.00 70 1009.1
20260506210433 81 132 1.0 2.0 0.00 0.00 0.00 71 1008.9
20260506205930 79 141 2.0 2.0 0.00 0.00 0.00 74 1008.8
20260506205426 77 228 3.0 3.0 0.00 0.00 0.00 78 1008.9
20260506204923 76 137 2.0 3.0 0.00 0.00 0.00 80 1009.0
20260506204421 75 138 2.0 2.0 0.00 0.00 0.00 82 1009.0
20260506203918 75 139 1.0 1.0 0.00 0.00 0.00 84 1009.2
20260506203415 74 137 3.0 3.0 0.00 0.00 0.00 85 1009.3
20260506202912 74 138 2.0 2.0 0.00 0.00 0.00 86 1009.3
20260506202409 74 142 2.0 3.0 0.00 0.00 0.00 86 1009.4
20260506201905 75 141 2.0 2.0 0.00 0.00 0.00 85 1009.2
20260506201403 79 145 3.0 5.0 0.00 0.00 0.00 80 1009.0
20260506200859 81 143 1.0 1.0 0.00 0.00 0.00 79 1009.1
20260506200355 81 143 0.0 1.0 0.00 0.00 0.00 80 1008.9
20260506195852 81 143 0.0 0.0 0.00 0.00 0.00 78 1009.0
20260506195349 82 143 1.0 1.0 0.00 0.00 0.00 78 1008.9
20260506194846 83 143 1.0 2.0 0.00 0.00 0.00 77 1008.8
20260506194343 83 143 0.0 0.0 0.00 0.00 0.00 75 1008.9
20260506193840 84 142 1.0 1.0 0.00 0.00 0.00 75 1008.7
20260506193337 84 143 1.0 1.0 0.00 0.00 0.00 75 1008.7
20260506192833 84 142 1.0 1.0 0.00 0.00 0.00 74 1008.7
20260506192330 84 143 1.0 1.0 0.00 0.00 0.00 75 1008.8
20260506191827 86 141 2.0 5.0 0.00 0.00 0.00 73 1008.8
20260506191323 86 143 1.0 1.0 0.00 0.00 0.00 71 1009.0
20260506190820 86 145 1.0 1.0 0.00 0.00 0.00 72 1009.0
20260506190317 86 144 2.0 3.0 0.00 0.00 0.00 70 1009.1
20260506185814 84 144 3.0 5.0 0.00 0.00 0.00 75 1009.0
20260506185311 84 143 0.0 1.0 0.00 0.00 0.00 76 1009.1
20260506184808 84 143 2.0 3.0 0.00 0.00 0.00 76 1009.3
20260506184305 84 152 2.0 2.0 0.00 0.00 0.00 74 1009.2
20260506183802 83 178 1.0 1.0 0.00 0.00 0.00 77 1009.3
20260506183257 83 149 4.0 5.0 0.00 0.00 0.00 76 1009.6
20260506182754 83 143 1.0 2.0 0.00 0.00 0.00 77 1009.5
20260506182251 83 143 0.0 0.0 0.00 0.00 0.00 76 1009.3
20260506181749 83 143 2.0 2.0 0.00 0.00 0.00 77 1009.5
20260506181247 83 152 3.0 5.0 0.00 0.00 0.00 76 1009.5
20260506180744 84 142 2.0 3.0 0.00 0.00 0.00 73 1009.5
20260506180239 83 159 2.0 3.0 0.00 0.00 0.00 76 1009.3
20260506175736 83 158 2.0 2.0 0.00 0.00 0.00 77 1009.2
20260506175233 80 144 2.0 2.0 0.00 0.00 0.00 81 1009.5
20260506174731 78 143 0.0 1.0 0.00 0.00 0.00 83 1009.5
20260506174227 77 143 1.0 2.0 0.00 0.00 0.00 83 1009.7
20260506173725 76 143 1.0 1.0 0.00 0.00 0.00 85 1009.8
20260506173222 76 142 0.0 1.0 0.00 0.00 0.00 86 1009.8
20260506172719 75 142 0.0 1.0 0.00 0.00 0.00 86 1010.2
20260506172215 75 142 2.0 3.0 0.00 0.00 0.00 86 1010.4
20260506171713 75 142 0.0 1.0 0.00 0.00 0.00 87 1010.3
20260506171210 76 140 2.0 2.0 0.00 0.00 0.00 86 1010.2
20260506170707 78 151 0.0 1.0 0.00 0.00 0.00 90 1010.1
20260506170204 77 151 2.0 3.0 0.00 0.00 0.00 91 1010.0
20260506165702 77 151 1.0 2.0 0.00 0.00 0.00 92 1010.0
20260506165159 77 150 1.0 1.0 0.00 0.00 0.00 93 1010.3
20260506164656 76 151 0.0 1.0 0.00 0.00 0.00 94 1010.2
20260506164153 77 151 2.0 2.0 0.00 0.00 0.00 93 1010.2
20260506163649 77 166 2.0 2.0 0.00 0.00 0.00 92 1010.2
20260506163145 77 149 1.0 1.0 0.00 0.00 0.00 91 1010.2
20260506162641 77 149 1.0 2.0 0.00 0.00 0.00 91 1010.2
20260506162139 77 149 0.0 1.0 0.00 0.00 0.00 91 1010.3
20260506161636 77 150 1.0 2.0 0.00 0.00 0.00 91 1010.4
20260506161132 77 149 1.0 1.0 0.00 0.00 0.00 91 1010.2
20260506160630 77 150 1.0 1.0 0.00 0.00 0.00 92 1010.3
20260506160127 77 151 0.0 1.0 0.00 0.00 0.00 92 1010.2
20260506155626 77 150 1.0 1.0 0.00 0.00 0.00 93 1010.0
20260506155122 76 151 0.0 0.0 0.00 0.00 0.00 94 1009.7
20260506153224 76 151 0.0 0.0 0.00 0.00 0.00 95 1009.5
20260506152721 75 151 0.0 0.0 0.00 0.00 0.00 95 1009.7
20260506152219 75 151 0.0 0.0 0.00 0.00 0.00 95 1009.5
20260506151718 75 151 0.0 0.0 0.00 0.00 0.00 96 1009.2
20260506151214 75 151 0.0 1.0 0.00 0.00 0.00 96 1009.1
20260506150710 74 151 0.0 0.0 0.00 0.00 0.00 96 1009.1
20260506150207 75 150 0.0 0.0 0.00 0.00 0.00 96 1009.3
20260506145704 74 150 0.0 0.0 0.00 0.00 0.00 96 1009.2
20260506145201 74 150 0.0 0.0 0.00 0.00 0.00 96 1009.1
20260506144659 74 150 0.0 1.0 0.00 0.00 0.00 96 1009.1
20260506144155 74 151 0.0 0.0 0.00 0.00 0.00 95 1009.0
20260506143653 74 151 0.0 0.0 0.00 0.00 0.00 95 1009.2
20260506143150 74 151 0.0 0.0 0.00 0.00 0.00 95 1009.0
20260506142649 74 151 0.0 0.0 0.00 0.00 0.00 95 1009.2
20260506142146 74 151 0.0 0.0 0.00 0.00 0.00 96 1009.3
20260506141644 74 151 0.0 0.0 0.00 0.00 0.00 96 1009.1
20260506141142 74 151 0.0 0.0 0.00 0.00 0.00 96 1008.7
20260506140639 74 152 0.0 0.0 0.00 0.00 0.00 96 1008.7
20260506140136 74 151 1.0 1.0 0.00 0.00 0.00 96 1008.5
20260506135633 74 152 1.0 2.0 0.00 0.00 0.00 96 1008.4
20260506135129 73 151 1.0 2.0 0.00 0.00 0.00 96 1008.1
20260506134626 73 152 1.0 1.0 0.00 0.00 0.00 96 1008.1
20260506134121 73 152 3.0 3.0 0.00 0.00 0.00 96 1008.1
20260506133619 73 151 1.0 1.0 0.00 0.00 0.00 96 1007.8
20260506133116 73 150 1.0 2.0 0.00 0.00 0.00 96 1007.8
20260506132613 73 150 2.0 2.0 0.00 0.00 0.00 97 1007.7
20260506132110 73 145 2.0 3.0 0.00 0.00 0.00 97 1008.0
20260506131608 73 152 1.0 1.0 0.00 0.00 0.00 97 1007.7
20260506131104 73 157 1.0 1.0 0.00 0.00 0.00 97 1008.0
20260506130601 73 151 3.0 5.0 0.00 0.00 0.00 97 1007.6
20260506130058 73 154 3.0 5.0 0.00 0.00 0.00 97 1007.5
20260506125557 73 152 3.0 3.0 0.00 0.00 0.00 97 1007.6
20260506125054 73 156 1.0 2.0 0.00 0.00 0.00 97 1007.5
20260506124552 73 150 2.0 2.0 0.00 0.00 0.00 97 1007.6
20260506124049 73 155 2.0 2.0 0.00 0.00 0.00 97 1007.6
20260506123547 73 151 1.0 1.0 0.00 0.00 0.00 97 1007.6
20260506123045 73 151 3.0 3.0 0.00 0.00 0.00 97 1007.6
20260506122541 73 150 1.0 1.0 0.00 0.00 0.00 97 1007.5
20260506122040 73 149 0.0 1.0 0.00 0.00 0.00 97 1007.8
20260506121537 73 149 0.0 1.0 0.00 0.00 0.00 97 1007.6
20260506121033 73 150 0.0 0.0 0.00 0.00 0.00 97 1007.8
20260506120531 73 149 0.0 1.0 0.00 0.00 0.00 97 1007.4
20260506120028 73 150 0.0 1.0 0.00 0.00 0.00 97 1007.5
20260506115526 73 150 0.0 1.0 0.00 0.00 0.00 97 1007.8
20260506115024 73 150 0.0 0.0 0.00 0.00 0.00 97 1007.5
20260506114521 73 152 0.0 1.0 0.00 0.00 0.00 96 1007.5
20260506114020 73 187 2.0 3.0 0.00 0.00 0.00 96 1007.4
20260506113517 73 150 0.0 1.0 0.00 0.00 0.00 96 1007.4
20260506113014 73 150 1.0 1.0 0.00 0.00 0.00 96 1007.4
20260506112511 73 149 1.0 1.0 0.00 0.00 0.00 96 1007.4
20260506112008 73 152 2.0 2.0 0.00 0.00 0.00 96 1007.5
20260506111506 73 150 0.0 0.0 0.00 0.00 0.00 96 1007.3
20260506111003 73 150 1.0 1.0 0.00 0.00 0.00 96 1007.4
20260506110501 73 151 1.0 1.0 0.00 0.00 0.00 96 1007.4
20260506105957 73 150 0.0 0.0 0.00 0.00 0.00 96 1007.4
20260506105453 73 150 1.0 1.0 0.00 0.00 0.00 96 1007.2
20260506104951 73 150 0.0 1.0 0.00 0.00 0.00 96 1007.2
20260506104449 73 150 2.0 2.0 0.00 0.00 0.00 96 1007.2
20260506103947 73 150 1.0 1.0 0.00 0.00 0.00 96 1006.8
20260506103444 73 164 1.0 2.0 0.00 0.00 0.00 96 1007.2
20260506102940 73 152 1.0 1.0 0.00 0.00 0.00 96 1007.3
20260506102439 73 204 4.0 6.0 0.00 0.00 0.00 96 1007.1
20260506101936 73 151 2.0 3.0 0.00 0.00 0.00 96 1007.3
20260506101432 73 168 2.0 2.0 0.00 0.00 0.00 96 1007.3
20260506100929 73 151 1.0 1.0 0.00 0.00 0.00 96 1007.1
20260506100427 73 152 1.0 2.0 0.00 0.00 0.00 96 1007.2
20260506095925 73 157 2.0 2.0 0.00 0.00 0.00 96 1007.2
20260506095424 73 156 2.0 2.0 0.00 0.00 0.00 96 1007.2
20260506094919 73 152 2.0 2.0 0.00 0.00 0.00 96 1007.2
20260506094418 73 156 1.0 1.0 0.00 0.00 0.00 96 1007.2
20260506093915 73 191 2.0 2.0 0.00 0.00 0.00 96 1006.9
20260506093413 73 153 2.0 2.0 0.00 0.00 0.00 96 1007.2
20260506092911 73 155 2.0 2.0 0.00 0.00 0.00 96 1006.9
20260506092409 73 152 1.0 1.0 0.00 0.00 0.00 96 1007.1
20260506091905 73 151 2.0 3.0 0.00 0.00 0.00 96 1006.8
20260506091403 73 195 3.0 3.0 0.00 0.00 0.00 96 1006.4
20260506090900 73 153 3.0 5.0 0.00 0.00 0.00 96 1006.8
20260506090357 73 155 3.0 3.0 0.00 0.00 0.00 96 1006.7
20260506085854 73 151 3.0 3.0 0.00 0.00 0.00 96 1006.9
20260506085350 73 160 2.0 3.0 0.00 0.00 0.00 96 1006.6
20260506084847 73 149 4.0 5.0 0.00 0.00 0.00 96 1006.7
20260506084344 73 160 2.0 3.0 0.00 0.00 0.00 96 1006.7
20260506083840 73 160 3.0 3.0 0.00 0.00 0.00 96 1006.7
20260506083338 73 146 3.0 3.0 0.00 0.00 0.00 96 1006.6
20260506082835 73 153 4.0 5.0 0.00 0.00 0.00 96 1006.7
20260506082331 73 151 2.0 2.0 0.00 0.00 0.00 96 1006.9
20260506081828 73 166 2.0 2.0 0.00 0.00 0.00 96 1006.9
20260506081326 73 150 3.0 5.0 0.00 0.00 0.00 96 1007.1
20260506080823 73 153 3.0 3.0 0.00 0.00 0.00 96 1007.3
20260506080319 73 168 3.0 3.0 0.00 0.00 0.00 96 1006.8
20260506073304 74 144 4.0 5.0 0.00 0.00 0.00 95 1007.1
20260506072800 74 154 3.0 3.0 0.00 0.00 0.00 95 1007.3
20260506072258 74 151 2.0 3.0 0.00 0.00 0.00 95 1007.2
20260506071755 74 157 3.0 3.0 0.00 0.00 0.00 95 1007.3
20260506071254 74 156 3.0 5.0 0.00 0.00 0.00 95 1007.3
20260506070750 74 156 4.0 6.0 0.00 0.00 0.00 95 1007.5
20260506070247 74 145 6.0 7.0 0.00 0.00 0.00 95 1007.5
20260506062224 74 200 3.0 3.0 0.00 0.00 0.00 96 1007.6
20260506061720 74 157 2.0 2.0 0.00 0.00 0.00 96 1007.8
20260506061218 74 168 4.0 6.0 0.00 0.00 0.00 96 1007.8
20260506060716 74 163 2.0 2.0 0.00 0.00 0.00 96 1007.8
20260506060213 74 163 2.0 3.0 0.00 0.00 0.00 96 1007.8
20260506051145 75 173 3.0 3.0 0.00 0.00 0.00 95 1007.4
20260506050643 75 179 3.0 3.0 0.00 0.00 0.00 95 1007.6
20260506050140 75 144 3.0 3.0 0.00 0.00 0.00 95 1007.5
20260506045133 75 158 3.0 3.0 0.00 0.00 0.00 95 1007.6
20260506044631 75 165 5.0 7.0 0.00 0.00 0.00 95 1007.4
20260506044128 75 165 2.0 2.0 0.00 0.00 0.00 95 1007.5
20260506043625 75 170 5.0 7.0 0.00 0.00 0.00 95 1007.3
20260506043123 75 149 3.0 5.0 0.00 0.00 0.00 94 1007.4
20260506042622 75 151 3.0 3.0 0.00 0.00 0.00 94 1007.6
20260506042119 75 152 3.0 3.0 0.00 0.00 0.00 94 1007.5
20260506041618 75 166 3.0 3.0 0.00 0.00 0.00 94 1007.4
20260506041114 75 156 2.0 3.0 0.00 0.00 0.00 94 1007.5
20260506040612 75 153 5.0 7.0 0.00 0.00 0.00 94 1007.5
20260506040108 75 207 5.0 7.0 0.00 0.00 0.00 94 1007.3
20260506035605 75 165 3.0 3.0 0.00 0.00 0.00 94 1007.3
20260506035102 76 152 3.0 5.0 0.00 0.00 0.00 94 1007.4
20260506034559 76 151 3.0 3.0 0.00 0.00 0.00 94 1007.1
20260506034056 76 156 2.0 2.0 0.00 0.00 0.00 94 1007.2
20260506033553 76 152 4.0 5.0 0.00 0.00 0.00 93 1006.8
20260506033050 76 153 3.0 6.0 0.00 0.00 0.00 93 1006.7
20260506032548 76 169 3.0 5.0 0.00 0.00 0.00 93 1006.5
20260506032044 76 157 2.0 2.0 0.00 0.00 0.00 93 1006.5
20260506031542 76 195 3.0 5.0 0.00 0.00 0.00 93 1006.6
20260506031038 76 156 2.0 2.0 0.00 0.00 0.00 93 1006.5
20260506030537 76 160 3.0 6.0 0.00 0.00 0.00 93 1006.5
20260506030034 76 167 4.0 6.0 0.00 0.00 0.00 92 1006.5
20260506025531 76 156 1.0 2.0 0.00 0.00 0.00 92 1006.4
20260506025026 76 152 3.0 5.0 0.00 0.00 0.00 92 1006.2
20260506024524 77 155 1.0 2.0 0.00 0.00 0.00 91 1006.2
20260506024020 77 156 1.0 2.0 0.00 0.00 0.00 91 1006.1
20260506023516 77 155 2.0 2.0 0.00 0.00 0.00 90 1005.9
20260506023014 77 155 2.0 2.0 0.00 0.00 0.00 89 1006.0
20260506022511 78 155 1.0 2.0 0.00 0.00 0.00 89 1006.0
20260506022009 78 167 3.0 3.0 0.00 0.00 0.00 88 1006.0
20260506021506 78 153 2.0 3.0 0.00 0.00 0.00 88 1005.7
20260506021003 78 154 3.0 3.0 0.00 0.00 0.00 87 1005.8
20260506020501 78 157 2.0 2.0 0.00 0.00 0.00 87 1005.8
20260506015957 78 155 1.0 1.0 0.00 0.00 0.00 86 1005.7
20260506015455 78 155 1.0 2.0 0.00 0.00 0.00 86 1005.6
20260506014952 78 154 1.0 1.0 0.00 0.00 0.00 86 1005.4
20260506014449 78 154 1.0 1.0 0.00 0.00 0.00 86 1005.6
20260506013945 79 154 1.0 1.0 0.00 0.00 0.00 86 1005.3
20260506013443 79 154 0.0 0.0 0.00 0.00 0.00 85 1005.3
20260506012939 79 154 1.0 1.0 0.00 0.00 0.00 85 1005.1
20260506012436 79 153 0.0 1.0 0.00 0.00 0.00 85 1005.2
20260506011933 79 153 1.0 1.0 0.00 0.00 0.00 84 1005.2
20260506011430 80 153 1.0 1.0 0.00 0.00 0.00 83 1005.3
20260506010927 80 151 2.0 2.0 0.00 0.00 0.00 83 1005.2
20260506010426 80 153 1.0 2.0 0.00 0.00 0.00 82 1005.2
20260506005921 81 152 1.0 1.0 0.00 0.00 0.00 82 1005.2
20260506005420 81 152 2.0 2.0 0.00 0.00 0.00 81 1005.2
20260506004914 81 151 1.0 2.0 0.00 0.00 0.00 80 1005.2
20260506004413 81 152 0.0 0.0 0.00 0.00 0.00 81 1005.3
20260506003908 81 152 1.0 1.0 0.00 0.00 0.00 80 1005.1
20260506003405 82 152 1.0 1.0 0.00 0.00 0.00 80 1005.0
20260506002902 82 152 0.0 0.0 0.00 0.00 0.00 79 1005.2
20260506002358 82 152 0.0 1.0 0.00 0.00 0.00 79 1005.5
20260506001853 82 151 1.0 1.0 0.00 0.00 0.00 78 1005.0
20260506001350 82 151 2.0 2.0 0.00 0.00 0.00 79 1004.9
20260506000847 82 152 1.0 2.0 0.00 0.00 0.00 78 1004.9
20260506000346 83 152 0.0 1.0 0.00 0.00 0.00 78 1005.0
20260505235842 83 152 1.0 1.0 0.00 0.00 0.00 77 1004.9
20260505235339 83 152 1.0 2.0 0.00 0.00 0.00 77 1004.9
20260505234836 83 152 1.0 2.0 0.00 0.00 0.00 76 1004.8
20260505234334 84 151 1.0 2.0 0.00 0.00 0.00 76 1004.8
20260505233831 84 152 3.0 6.0 0.00 0.00 0.00 75 1004.8
20260505233329 84 153 3.0 3.0 0.00 0.00 0.00 75 1004.7
20260505232826 84 152 3.0 3.0 0.00 0.00 0.00 76 1004.7
20260505232323 84 153 1.0 2.0 0.00 0.00 0.00 75 1004.7
20260505231820 84 154 3.0 5.0 0.00 0.00 0.00 74 1004.8
20260505231318 83 171 2.0 3.0 0.00 0.00 0.00 74 1004.9
20260505230816 83 150 4.0 6.0 0.00 0.00 0.00 73 1004.7
20260505230313 83 152 2.0 3.0 0.00 0.00 0.00 75 1004.6
20260505225809 84 152 3.0 3.0 0.00 0.00 0.00 74 1004.4
20260505225306 84 150 4.0 5.0 0.00 0.00 0.00 73 1004.4
20260505224801 84 150 4.0 6.0 0.00 0.00 0.00 72 1004.6